Total_Precipitation_Accumulation
0.04 0.08 0.14 0.17 0.17 0.15 0.12 0.10 0.16 0.19 0.37 0.41 0.53 0.69 0.84 0.86 0.78 0.71 0.78 0.81 0.81 0.88 1.07 1.20 1.36 1.39 1.35 1.35 1.42 1.56 1.65 1.71 1.87 2.03 2.06 1.96 1.93 2.00 2.05 2.10 2.03 2.19 2.22 2.25
0.04 0.07 0.12 0.14 0.16 0.12 0.09 0.09 0.12 0.17 0.27 0.34 0.52 0.63 0.70 0.68 0.67 0.78 0.83 0.82 0.77 0.87 1.07 1.13 1.17 1.25 1.27 1.32 1.38 1.45 1.52 1.66 1.86 2.06 2.15 2.14 2.19 2.34 2.36 2.31 2.43 2.56 2.53 2.51
0.06 0.08 0.12 0.20 0.16 0.12 0.12 0.11 0.15 0.23 0.28 0.32 0.47 0.62 0.75 0.77 0.81 0.86 0.87 0.84 0.82 0.83 0.94 1.15 1.10 1.11 1.24 1.34 1.47 1.60 1.83 1.99 2.07 2.20 2.32 2.34 2.33 2.38 2.42 2.46 2.48 2.55 2.56 2.61
0.13 0.15 0.23 0.22 0.17 0.17 0.18 0.20 0.24 0.30 0.37 0.44 0.54 0.67 0.80 0.85 0.84 0.96 1.05 1.12 1.15 1.21 1.22 1.30 1.26 1.27 1.36 1.49 1.64 1.71 1.77 1.91 2.03 2.22 2.35 2.46 2.58 2.60 2.67 2.77 2.80 2.79 2.74 2.74
0.22 0.23 0.27 0.28 0.27 0.27 0.30 0.39 0.41 0.52 0.62 0.64 0.66 0.69 0.84 0.98 1.06 1.15 1.12 1.19 1.31 1.36 1.40 1.39 1.45 1.58 1.74 1.78 1.92 2.06 2.12 2.24 2.33 2.41 2.56 2.64 2.69 2.84 2.96 3.06 3.03 3.04 2.99 2.95
0.33 0.40 0.45 0.44 0.43 0.36 0.43 0.79 0.71 0.75 0.85 0.87 0.93 1.16 1.25 1.24 1.24 1.28 1.27 1.30 1.40 1.41 1.46 1.65 1.71 1.78 1.94 2.13 2.25 2.42 2.56 2.67 2.75 2.83 2.88 2.84 2.85 2.96 3.01 3.07 3.07 3.07 2.97 2.99
0.46 0.48 0.49 0.47 0.47 0.49 0.88 1.25 1.20 1.21 1.23 1.15 1.28 1.36 1.27 1.17 1.29 1.36 1.42 1.48 1.49 1.52 1.60 1.74 1.81 1.88 2.07 2.37 2.60 2.78 2.83 2.88 2.91 3.01 3.16 3.27 3.31 3.12 2.96 2.96 3.04 3.12 3.08 3.11
0.71 0.85 0.89 0.60 0.66 1.01 1.29 1.25 1.48 1.38 1.25 1.28 1.28 1.23 1.18 1.18 1.34 1.51 1.63 1.67 1.70 1.72 1.76 1.82 1.96 2.11 2.24 2.48 2.58 2.74 2.76 2.82 2.89 2.94 2.89 2.92 3.18 3.23 3.17 3.08 2.99 3.00 3.08 3.00
1.03 1.14 1.03 0.86 0.91 1.14 1.19 1.23 1.36 1.34 1.19 1.18 1.20 1.14 1.14 1.20 1.31 1.46 1.57 1.63 1.63 1.68 1.83 1.85 1.89 2.07 2.35 2.42 2.47 2.49 2.58 2.68 2.86 2.94 2.98 2.94 2.93 3.00 3.01 2.95 2.81 2.64 2.68 2.73
1.35 1.36 1.23 1.07 0.96 1.03 1.10 1.15 1.19 1.30 1.32 1.25 1.23 1.17 1.21 1.23 1.27 1.46 1.59 1.62 1.67 1.62 1.64 1.77 1.89 2.06 2.15 2.19 2.30 2.51 2.58 2.58 2.64 2.69 2.72 2.79 2.89 2.84 2.81 2.81 2.76 2.62 2.63 2.66
1.87 1.89 1.70 1.53 1.34 1.25 1.23 1.23 1.25 1.38 1.47 1.52 1.49 1.44 1.45 1.37 1.37 1.49 1.56 1.53 1.61 1.70 1.72 1.79 1.86 2.00 2.13 2.18 2.22 2.34 2.35 2.26 2.32 2.45 2.51 2.54 2.68 2.75 2.62 2.55 2.60 2.50 2.56 2.74
2.26 2.07 2.06 1.93 1.58 1.43 1.45 1.54 1.50 1.50 1.55 1.53 1.49 1.51 1.55 1.58 1.49 1.41 1.38 1.49 1.63 1.69 1.77 1.82 1.84 1.92 1.95 2.00 2.11 2.24 2.30 2.29 2.28 2.35 2.45 2.50 2.47 2.54 2.56 2.34 2.30 2.16 2.17 2.25
1.91 1.90 1.95 1.85 1.69 1.58 1.62 1.59 1.64 1.69 1.65 1.57 1.50 1.49 1.50 1.56 1.60 1.51 1.46 1.48 1.61 1.65 1.67 1.72 1.73 1.77 1.78 1.85 2.06 2.30 2.40 2.48 2.42 2.26 2.20 2.24 2.25 2.21 2.22 2.14 1.89 1.75 1.70 1.67
1.93 1.95 2.02 1.92 1.88 1.73 1.71 1.60 1.54 1.50 1.43 1.43 1.47 1.48 1.44 1.43 1.54 1.63 1.61 1.62 1.74 1.79 1.67 1.57 1.57 1.62 1.68 1.73 1.85 2.01 2.08 2.17 2.14 2.02 1.94 1.88 1.86 1.83 1.75 1.79 1.74 1.59 1.52 1.47
1.77 1.77 1.88 1.80 1.76 1.76 1.77 1.71 1.62 1.51 1.40 1.44 1.50 1.49 1.51 1.56 1.65 1.76 1.80 1.87 1.91 1.89 1.74 1.58 1.53 1.56 1.61 1.70 1.79 1.83 1.90 1.92 1.86 1.86 1.88 1.89 1.96 1.95 1.82 1.77 1.82 1.79 1.66 1.47
1.59 1.66 1.66 1.73 1.87 1.78 1.71 1.69 1.69 1.65 1.51 1.49 1.53 1.50 1.48 1.55 1.65 1.69 1.76 1.91 2.06 2.02 1.89 1.78 1.65 1.57 1.53 1.67 1.82 1.84 1.81 1.95 1.89 1.76 1.77 1.91 2.04 2.01 2.00 2.05 2.02 2.09 2.07 1.77
1.70 1.73 1.66 1.72 1.85 1.86 1.80 1.73 1.73 1.69 1.65 1.64 1.60 1.49 1.50 1.60 1.70 1.77 1.70 1.66 1.76 1.82 1.80 1.75 1.64 1.53 1.53 1.59 1.66 1.76 1.73 1.74 1.78 1.69 1.71 1.82 1.92 1.98 1.98 2.00 2.08 2.13 2.11 1.92
1.56 1.48 1.47 1.53 1.58 1.66 1.72 1.75 1.77 1.68 1.61 1.59 1.58 1.54 1.55 1.63 1.76 1.81 1.73 1.62 1.54 1.52 1.58 1.57 1.50 1.44 1.46 1.50 1.57 1.69 1.68 1.66 1.66 1.65 1.68 1.73 1.77 1.90 2.03 2.08 2.12 2.18 2.06 1.98
1.54 1.44 1.38 1.38 1.35 1.40 1.52 1.63 1.66 1.61 1.52 1.51 1.54 1.55 1.50 1.48 1.59 1.69 1.69 1.77 1.78 1.66 1.56 1.45 1.40 1.32 1.39 1.44 1.44 1.47 1.48 1.55 1.65 1.64 1.63 1.63 1.64 1.70 1.75 1.82 1.93 2.00 1.89 1.86
1.66 1.60 1.44 1.37 1.36 1.31 1.37 1.40 1.47 1.52 1.44 1.39 1.42 1.44 1.44 1.45 1.54 1.73 1.83 1.90 1.97 1.85 1.69 1.53 1.26 1.18 1.23 1.30 1.27 1.18 1.19 1.23 1.26 1.32 1.36 1.41 1.48 1.56 1.54 1.55 1.65 1.73 1.68 1.68
1.77 1.70 1.57 1.48 1.50 1.42 1.37 1.31 1.33 1.43 1.43 1.45 1.54 1.58 1.51 1.45 1.47 1.70 2.03 2.12 1.97 1.79 1.65 1.60 1.29 1.08 0.99 1.08 1.20 1.17 1.22 1.20 1.17 1.24 1.29 1.32 1.37 1.43 1.48 1.54 1.58 1.57 1.57 1.55
1.82 1.74 1.64 1.53 1.46 1.46 1.42 1.34 1.33 1.38 1.42 1.48 1.46 1.44 1.46 1.41 1.41 1.59 1.77 1.96 1.84 1.71 1.41 1.33 1.21 1.02 0.97 0.95 0.96 1.08 1.18 1.22 1.21 1.24 1.27 1.30 1.35 1.40 1.46 1.47 1.45 1.40 1.39 1.42
1.84 1.71 1.61 1.49 1.45 1.43 1.37 1.36 1.31 1.33 1.37 1.36 1.32 1.37 1.44 1.46 1.42 1.57 1.68 1.50 1.37 1.39 1.25 1.21 1.14 1.00 0.90 0.87 0.91 0.96 1.03 1.11 1.13 1.15 1.16 1.19 1.24 1.28 1.31 1.34 1.34 1.27 1.30 1.33
1.72 1.75 1.74 1.66 1.51 1.40 1.40 1.36 1.32 1.33 1.30 1.29 1.29 1.31 1.34 1.37 1.34 1.29 1.32 1.32 1.30 1.26 1.15 1.17 1.06 0.91 0.81 0.76 0.84 0.92 1.00 1.06 1.07 1.06 1.07 1.11 1.16 1.20 1.27 1.32 1.34 1.29 1.25 1.21
1.62 1.61 1.61 1.63 1.58 1.48 1.41 1.35 1.39 1.44 1.37 1.33 1.28 1.25 1.23 1.24 1.24 1.23 1.21 1.22 1.25 1.17 1.07 1.09 1.04 1.00 0.91 0.90 0.94 1.00 1.03 1.09 1.12 1.11 1.13 1.16 1.19 1.23 1.26 1.30 1.29 1.25 1.22 1.20
1.56 1.52 1.53 1.50 1.45 1.46 1.45 1.43 1.49 1.51 1.44 1.38 1.34 1.27 1.19 1.14 1.17 1.24 1.30 1.26 1.14 1.09 1.00 0.99 0.98 1.01 1.00 1.05 1.11 1.11 1.07 1.09 1.09 1.07 1.12 1.22 1.28 1.30 1.27 1.20 1.16 1.16 1.13 1.10
1.49 1.50 1.52 1.46 1.41 1.39 1.40 1.39 1.44 1.53 1.47 1.38 1.38 1.36 1.33 1.35 1.36 1.35 1.34 1.31 1.20 1.10 1.02 0.98 0.94 0.89 0.93 0.98 1.03 1.09 1.10 1.09 1.10 1.11 1.15 1.19 1.21 1.19 1.14 1.10 1.09 1.09 1.06 1.04